New Richmond, WI

4:30 PM CDT on April 25, 2018 (GMT -0500)
New Richmond Municipal

Weather History for KRNH - February, 2014

Change the Weather History Date:

Sunday, February 2, 2014

  Actual Average (KSTP) Record (KSTP)
Temperature  
Mean Temperature -4 °F -  
Max Temperature 10 °F 26 °F 46 °F (2006)
Min Temperature -19 °F 11 °F -9 °F (2001)
Degree Days  
Heating Degree Days 70    
Moisture  
Dew Point -10 °F    
Average Humidity 75    
Maximum Humidity 87    
Minimum Humidity 59    
Precipitation  
Precipitation 0.00 in - - ()
Sea Level Pressure  
Sea Level Pressure 30.23 in    
Wind  
Wind Speed 4 mph (SSW)    
Max Wind Speed 12 mph    
Max Gust Speed -    
Visibility 10 miles    
Events      
Averages and records for this station are not official NWS values.
T = Trace of Precipitation, MM = Missing Value Source: NWS Daily Summary

Daily Weather History Graph

Daily Weather History Graph

Search for Another Location

Airport or City:

Astronomy

Feb. 02, 2014 Rise Set
Actual Time 7:29 AM CST 5:19 PM CST
Civil Twilight 6:57 AM CST 5:50 PM CST
Nautical Twilight 6:22 AM CST 6:25 PM CST
Astronomical Twilight 5:48 AM CST 7:00 PM CST
Moon 8:44 AM CST (2/2) 9:16 PM CST (2/2)
Length of Visible Light 10h 52m
Length of Day
9h 50m
Waxing Crescent, 11% of the Moon is Illuminated
Feb 2
Waxing Crescent
Feb 6
First Quarter
Feb 14
Full
Feb 22
Last Quarter
Mar 1
New

Hourly Weather History & Observations

Time (CST) Temp. Windchill Dew Point Humidity Pressure Visibility Wind Dir Wind Speed Gust Speed Precip Events Conditions
12:15 AM -2.9 °F -13.3 °F -9.4 °F 74% 30.18 in 10.0 mi West 4.6 mph - N/A   Clear
12:35 AM -2.2 °F -14.2 °F -8.7 °F 74% 30.19 in 10.0 mi WNW 5.8 mph - N/A   Clear
12:55 AM -2.7 °F -13.1 °F -8.9 °F 75% 30.19 in 10.0 mi West 4.6 mph - N/A   Clear
1:15 AM -4.7 °F -13.2 °F -10.3 °F 77% 30.19 in 10.0 mi West 3.5 mph - N/A   Clear
1:35 AM -4.4 °F - -9.8 °F 78% 30.19 in 10.0 mi Calm Calm - N/A   Clear
1:55 AM -5.4 °F - -10.7 °F 78% 30.20 in 10.0 mi Calm Calm - N/A   Clear
2:15 AM -5.1 °F -15.8 °F -10.3 °F 78% 30.20 in 10.0 mi WNW 4.6 mph - N/A   Clear
2:35 AM -5.4 °F -18.0 °F -10.7 °F 78% 30.20 in 10.0 mi WNW 5.8 mph - N/A   Clear
2:55 AM -9.2 °F -20.7 °F -14.3 °F 79% 30.21 in 10.0 mi West 4.6 mph - N/A   Clear
3:15 AM -11.4 °F -23.2 °F -15.5 °F 82% 30.21 in 10.0 mi West 4.6 mph - N/A   Clear
3:35 AM -10.1 °F -21.7 °F -14.4 °F 81% 30.20 in 10.0 mi West 4.6 mph - N/A   Clear
3:55 AM -9.4 °F - -13.2 °F 83% 30.21 in 10.0 mi Calm Calm - N/A   Clear
4:15 AM -10.7 °F - -14.8 °F 82% 30.21 in 10.0 mi Calm Calm - N/A   Clear
4:35 AM -10.3 °F - -14.1 °F 83% 30.22 in 10.0 mi Calm Calm - N/A   Clear
4:55 AM -11.7 °F - -15.2 °F 85% 30.22 in 10.0 mi Calm Calm - N/A   Clear
5:15 AM -16.6 °F - -20.9 °F 81% 30.23 in 10.0 mi Calm Calm - N/A   Clear
5:35 AM -12.6 °F -22.3 °F -16.1 °F 85% 30.23 in 10.0 mi SSW 3.5 mph - N/A   Clear
5:55 AM -11.2 °F -23.0 °F -15.2 °F 83% 30.24 in 10.0 mi WSW 4.6 mph - N/A   Clear
6:15 AM -12.8 °F - -17.1 °F 81% 30.24 in 10.0 mi Calm Calm - N/A   Clear
6:35 AM -12.5 °F - -16.8 °F 81% 30.24 in 10.0 mi Calm Calm - N/A   Clear
6:55 AM -15.0 °F -27.4 °F -19.7 °F 79% 30.25 in 10.0 mi West 4.6 mph - N/A   Clear
7:15 AM -13.4 °F -23.1 °F -17.7 °F 81% 30.26 in 10.0 mi West 3.5 mph - N/A   Clear
7:35 AM -19.1 °F - -24.5 °F 76% 30.26 in 10.0 mi Calm Calm - N/A   Clear
7:55 AM -18.0 °F - -22.7 °F 79% 30.26 in 10.0 mi Calm Calm - N/A   Clear
8:15 AM -17.9 °F -28.2 °F -22.7 °F 78% 30.27 in 10.0 mi SSW 3.5 mph - N/A   Clear
8:35 AM -15.3 °F -25.4 °F -20.4 °F 78% 30.27 in 10.0 mi SSW 3.5 mph - N/A   Clear
8:55 AM -17.5 °F - -22.7 °F 77% 30.28 in 10.0 mi Calm Calm - N/A   Clear
9:15 AM -12.6 °F - -17.0 °F 81% 30.28 in 10.0 mi Calm Calm - N/A   Clear
9:35 AM -7.2 °F - -11.6 °F 81% 30.28 in 10.0 mi Calm Calm - N/A   Clear
9:55 AM -7.4 °F - -12.5 °F 79% 30.28 in 10.0 mi Calm Calm - N/A   Clear
10:15 AM -3.6 °F -12.0 °F -8.0 °F 82% 30.28 in 10.0 mi SW 3.5 mph - N/A   Clear
10:35 AM -2.4 °F -10.6 °F -6.9 °F 81% 30.28 in 10.0 mi SSW 3.5 mph - N/A   Clear
10:55 AM -2.9 °F - -7.6 °F 80% 30.27 in 10.0 mi Calm Calm - N/A   Clear
11:15 AM -0.6 °F - -6.5 °F 76% 30.27 in 10.0 mi Calm Calm - N/A   Clear
11:35 AM -0.2 °F - -7.6 °F 71% 30.27 in 10.0 mi Calm Calm - N/A   Clear
11:55 AM 3.0 °F -8.0 °F -6.0 °F 66% 30.26 in 10.0 mi South 5.8 mph - N/A   Clear
12:15 PM 4.1 °F -8.0 °F -5.8 °F 64% 30.26 in 10.0 mi South 6.9 mph - N/A   Clear
12:35 PM 5.2 °F -6.7 °F -5.3 °F 62% 30.25 in 10.0 mi SSW 6.9 mph - N/A   Clear
12:55 PM 6.3 °F -4.1 °F -4.4 °F 62% 30.25 in 10.0 mi South 5.8 mph - N/A   Clear
1:15 PM 7.0 °F -3.3 °F -3.8 °F 61% 30.24 in 10.0 mi South 5.8 mph - N/A   Clear
1:35 PM 7.9 °F -2.2 °F -2.9 °F 61% 30.24 in 10.0 mi SSW 5.8 mph - N/A   Clear
1:55 PM 8.6 °F -4.7 °F -2.2 °F 62% 30.23 in 10.0 mi South 9.2 mph - N/A   Clear
2:15 PM 9.0 °F -4.2 °F -2.0 °F 61% 30.24 in 10.0 mi South 9.2 mph - N/A   Clear
2:35 PM 9.3 °F -2.8 °F -1.7 °F 61% 30.24 in 10.0 mi SSW 8.1 mph - N/A   Clear
2:55 PM 9.9 °F -4.0 °F -2.0 °F 59% 30.24 in 10.0 mi SW 10.4 mph - N/A   Clear
3:15 PM 10.0 °F -4.5 °F -1.8 °F 59% 30.24 in 10.0 mi SW 11.5 mph - N/A   Clear
3:35 PM 9.9 °F -2.2 °F -1.7 °F 60% 30.25 in 10.0 mi SSW 8.1 mph - N/A   Clear
3:55 PM 9.5 °F -3.5 °F -1.3 °F 62% 30.25 in 10.0 mi South 9.2 mph - N/A   Clear
4:15 PM 9.3 °F -1.7 °F -1.3 °F 62% 30.25 in 10.0 mi South 6.9 mph - N/A   Clear
4:35 PM 8.6 °F -3.7 °F -1.7 °F 63% 30.24 in 10.0 mi South 8.1 mph - N/A   Clear
4:55 PM 7.7 °F -2.4 °F -2.4 °F 63% 30.24 in 10.0 mi SSW 5.8 mph - N/A   Clear
5:15 PM 6.1 °F -5.6 °F -3.5 °F 65% 30.24 in 10.0 mi South 6.9 mph - N/A   Clear
5:35 PM 4.5 °F -6.3 °F -3.5 °F 70% 30.23 in 10.0 mi South 5.8 mph - N/A   Clear
5:55 PM 3.6 °F -7.3 °F -4.0 °F 71% 30.23 in 10.0 mi South 5.8 mph - N/A   Clear
6:15 PM 3.4 °F -7.5 °F -4.0 °F 71% 30.23 in 10.0 mi South 5.8 mph - N/A   Clear
6:35 PM 2.8 °F -6.6 °F -4.4 °F 72% 30.23 in 10.0 mi South 4.6 mph - N/A   Clear
6:55 PM 1.6 °F -6.0 °F -4.9 °F 74% 30.23 in 10.0 mi South 3.5 mph - N/A   Clear
7:15 PM -5.3 °F - -10.3 °F 79% 30.22 in 10.0 mi Calm Calm - N/A   Clear
7:35 PM -6.0 °F -14.7 °F -10.5 °F 81% 30.22 in 10.0 mi SSE 3.5 mph - N/A   Clear
7:55 PM -3.6 °F -14.1 °F -6.7 °F 87% 30.21 in 10.0 mi SSE 4.6 mph - N/A   Clear
8:15 PM -0.4 °F -10.4 °F -5.3 °F 80% 30.21 in 10.0 mi SSE 4.6 mph - N/A   Clear
8:35 PM -4.2 °F -12.6 °F -10.1 °F 76% 30.20 in 10.0 mi SSE 3.5 mph - N/A   Clear
8:55 PM -7.6 °F -16.5 °F -11.2 °F 84% 30.20 in 10.0 mi SSE 3.5 mph - N/A   Clear
9:15 PM -2.7 °F -13.1 °F -6.9 °F 82% 30.20 in 10.0 mi South 4.6 mph - N/A   Clear
9:35 PM -9.4 °F -18.6 °F -14.3 °F 79% 30.19 in 10.0 mi SSE 3.5 mph - N/A   Clear
9:55 PM -4.4 °F -15.0 °F -8.0 °F 84% 30.20 in 10.0 mi South 4.6 mph - N/A   Clear
10:15 PM -2.6 °F -12.9 °F -6.3 °F 84% 30.20 in 10.0 mi South 4.6 mph - N/A   Clear
10:35 PM -2.4 °F -14.4 °F -6.2 °F 84% 30.19 in 10.0 mi SSE 5.8 mph - N/A   Clear
10:55 PM -2.4 °F -12.7 °F -6.2 °F 84% 30.20 in 10.0 mi South 4.6 mph - N/A   Clear
11:15 PM -3.5 °F -11.8 °F -7.2 °F 84% 30.20 in 10.0 mi South 3.5 mph - N/A   Clear
11:35 PM -1.8 °F -12.0 °F -5.6 °F 84% 30.20 in 10.0 mi SSE 4.6 mph - N/A   Clear
11:55 PM -3.3 °F -15.4 °F -6.9 °F 85% 30.20 in 10.0 mi South 5.8 mph - N/A   Clear